Weather History for Sisseton, SD

Change the Weather History Date:

Wednesday, March 26, 2014

  Actual Average Record
Temperature  
Mean Temperature 34 °F 34 °F  
Max Temperature 53 °F 45 °F 71 °F (1968)
Min Temperature 14 °F 25 °F -12 °F (1996)
Degree Days  
Heating Degree Days 31 30  
Month to date heating degree days 1031 938  
Since 1 July heating degree days 7848 7197  
Cooling Degree Days 0 0  
Month to date cooling degree days 0 0  
Year to date cooling degree days 0 0  
Moisture  
Dew Point 19 °F    
Average Humidity 58    
Maximum Humidity 82    
Minimum Humidity 33    
Precipitation  
Precipitation 0.00 in 0.03 in 1.61 in (1942)
Month to date precipitation 0.41 0.85  
Year to date precipitation 1.03 1.71  
Snow  
Snow 0.00 in - - ()
Month to date snowfall 3.5  
Since 1 July snowfall 25.4  
Snow Depth 0.00 in    
Sea Level Pressure  
Sea Level Pressure 29.70 in    
Wind  
Wind Speed 13 mph (SSE)    
Max Wind Speed 26 mph    
Max Gust Speed 32 mph    
T = Trace of Precipitation, MM = Missing Value Source: NWS Daily Summary

Daily Weather History Graph

Daily Weather History Graph

Search for Another Location

Airport:

Trip Planner

Search our weather history database for the weather conditions in past years. The results will help you decide how hot, cold, wet, or windy it might be!

Date:

Astronomy

Mar. 26, 2014 Rise Set
Actual Time 7:19 AM CDT 7:48 PM CDT
Civil Twilight 6:49 AM CDT 8:18 PM CDT
Nautical Twilight 6:14 AM CDT 8:53 PM CDT
Astronomical Twilight 5:38 AM CDT 9:30 PM CDT
Moon 4:41 AM CDT (3/26) 3:16 PM CDT (3/26)
Length of Visible Light 13h 28m
Length of Day
12h 29m
Waning Crescent, 21% of the Moon is Illuminated
Mar 26
Waning Crescent
Mar 30
New
Apr 7
First Quarter
Apr 15
Full
Apr 22
Last Quarter

Hourly Weather History & Observations

Time (CDT) Temp. Windchill Dew Point Humidity Pressure Visibility Wind Dir Wind Speed Gust Speed Precip Events Conditions
12:56 AM 14.0 °F 3.9 °F 7.0 °F 74% 30.11 in - SE 6.9 mph - N/A   Unknown
1:56 AM 14.0 °F 8.2 °F 7.0 °F 74% 30.09 in - SSE 3.5 mph - N/A   Unknown
2:56 AM 18.0 °F 7.7 °F 10.0 °F 71% 30.07 in - SSE 8.1 mph - N/A   Unknown
3:56 AM 18.0 °F 6.9 °F 10.9 °F 74% 30.04 in - SSE 9.2 mph - N/A   Unknown
4:56 AM 19.0 °F 7.5 °F 10.9 °F 71% 29.99 in - SSE 10.4 mph - N/A   Unknown
5:56 AM 21.0 °F 8.6 °F 12.0 °F 68% 29.95 in - SSE 12.7 mph - N/A   Unknown
6:56 AM 19.9 °F 7.3 °F 12.0 °F 71% 29.91 in - SSE 12.7 mph - N/A   Unknown
7:56 AM 21.0 °F 8.1 °F 12.0 °F 68% 29.88 in - South 13.8 mph - N/A   Unknown
8:56 AM 24.1 °F 10.1 °F 12.0 °F 60% 29.84 in - South 18.4 mph - N/A   Unknown
9:56 AM 27.0 °F 13.5 °F 12.9 °F 56% 29.80 in - South 19.6 mph - N/A   Unknown
10:56 AM 33.1 °F 20.9 °F 14.0 °F 46% 29.74 in - SSE 21.9 mph - N/A   Unknown
11:56 AM 39.9 °F 30.2 °F 17.1 °F 40% 29.68 in - South 20.7 mph - N/A   Unknown
12:56 PM 46.0 °F 38.5 °F 19.0 °F 34% 29.64 in - South 19.6 mph 27.6 mph N/A   Unknown
1:56 PM 48.0 °F - 21.0 °F 34% 29.59 in - South 21.9 mph 28.8 mph N/A   Unknown
2:56 PM 50.0 °F - 23.0 °F 35% 29.54 in - South 20.7 mph 32.2 mph N/A   Unknown
3:56 PM 51.1 °F - 24.1 °F 35% 29.50 in - South 20.7 mph - N/A   Unknown
4:56 PM 53.1 °F - 26.1 °F 35% 29.47 in - South 21.9 mph 28.8 mph N/A   Unknown
5:56 PM 53.1 °F - 26.1 °F 35% 29.46 in - South 15.0 mph - N/A   Unknown
6:56 PM 50.0 °F - 28.0 °F 43% 29.44 in - ESE 6.9 mph - N/A   Unknown
7:56 PM 44.1 °F 39.0 °F 27.0 °F 51% 29.44 in - East 9.2 mph - N/A   Unknown
8:56 PM 39.9 °F 35.8 °F 27.0 °F 60% 29.43 in - ESE 5.8 mph - N/A   Unknown
9:56 PM 39.0 °F 32.8 °F 30.0 °F 70% 29.43 in - ESE 9.2 mph - N/A   Unknown
10:56 PM 36.0 °F 30.3 °F 28.9 °F 76% 29.42 in - East 6.9 mph - N/A   Unknown
11:56 PM 33.1 °F - 28.0 °F 82% 29.43 in - Calm Calm - N/A   Unknown